When you browse on this site, cookies collect data to enhance your experience and personalize the content and advertising you see.
Visit our Privacy Policy to learn more. By continuing to use the site, you agree to this use of cookies and data.
  • In Hungary
  • List of Countries
  • For 7 days
  • Water Temperature
  • Satellite Maps
  • Weather Map
  • News
  • Weather Widgets
  • user-avatar
    Login

    Hourly Weather Tacna

    Today, 21 November, Wednesday

    Time Temperature Precipitation Wind Pressure Humidity
    00:00 +23°C° 0 mm 1 mps 703 mmHg 74%
    01:00 +23°C° 0 mm 1 mps 703 mmHg 75%
    02:00 +23°C° 0 mm 1 mps 703 mmHg 74%
    03:00 +23°C° 0 mm 1 mps 703 mmHg 74%
    04:00 +23°C° 0 mm 1 mps 703 mmHg 73%
    05:00 +24°C° 0 mm 1 mps 703 mmHg 70%
    06:00 +24°C° 0 mm 1 mps 703 mmHg 67%
    07:00 +25°C° 0 mm 1 mps 703 mmHg 63%
    08:00 +26°C° 0 mm 2 mps 703 mmHg 59%
    09:00 +27°C° 0 mm 3 mps 703 mmHg 54%
    10:00 +28°C° 0 mm 3 mps 703 mmHg 49%
    11:00 +29°C° 0 mm 4 mps 703 mmHg 50%
    12:00 +29°C° 0 mm 4 mps 703 mmHg 50%
    13:00 +29°C° 0 mm 4 mps 702 mmHg 51%
    14:00 +28°C° 0 mm 4 mps 702 mmHg 55%
    15:00 +27°C° 0 mm 4 mps 702 mmHg 60%
    16:00 +26°C° 0 mm 4 mps 701 mmHg 64%
    17:00 +25°C° 0 mm 3 mps 702 mmHg 68%
    18:00 +25°C° 0 mm 2 mps 703 mmHg 72%
    19:00 +24°C° 0 mm 2 mps 703 mmHg 76%
    20:00 +24°C° 0 mm 2 mps 703 mmHg 75%
    21:00 +24°C° 0 mm 1 mps 704 mmHg 74%
    22:00 +24°C° 0 mm 1 mps 704 mmHg 73%
    23:00 +23°C° 0 mm 1 mps 704 mmHg 73%

    Tomorrow, 22 November, Thursday

    Time Temperature Precipitation Wind Pressure Humidity
    00:00 +23°C° 0 mm 1 mps 704 mmHg 72%
    01:00 +23°C° 0 mm 1 mps 703 mmHg 72%
    02:00 +23°C° 0 mm 1 mps 703 mmHg 72%
    03:00 +23°C° 0 mm 1 mps 703 mmHg 71%
    04:00 +22°C° 0 mm 1 mps 703 mmHg 71%
    05:00 +23°C° 0 mm 1 mps 703 mmHg 66%
    06:00 +24°C° 0 mm 1 mps 703 mmHg 62%
    07:00 +24°C° 0 mm 1 mps 704 mmHg 57%
    08:00 +26°C° 0 mm 2 mps 704 mmHg 53%
    09:00 +27°C° 0 mm 3 mps 703 mmHg 48%
    10:00 +28°C° 0 mm 3 mps 703 mmHg 44%
    11:00 +28°C° 0 mm 4 mps 703 mmHg 44%
    12:00 +29°C° 0 mm 4 mps 702 mmHg 45%
    13:00 +29°C° 0 mm 4 mps 702 mmHg 45%
    14:00 +28°C° 0 mm 4 mps 702 mmHg 50%
    15:00 +27°C° 0 mm 4 mps 701 mmHg 55%
    16:00 +26°C° 0 mm 3 mps 701 mmHg 60%
    17:00 +25°C° 0 mm 3 mps 702 mmHg 64%
    18:00 +24°C° 0 mm 2 mps 703 mmHg 68%
    19:00 +24°C° 0 mm 2 mps 703 mmHg 72%
    20:00 +23°C° 0 mm 2 mps 704 mmHg 71%
    21:00 +23°C° 0 mm 1 mps 704 mmHg 70%
    22:00 +23°C° 0 mm 1 mps 704 mmHg 69%
    23:00 +23°C° 0 mm 1 mps 704 mmHg 69%

    Day after tomorrow, 23 November, Friday

    Time Temperature Precipitation Wind Pressure Humidity
    00:00 +23°C° 0 mm 1 mps 703 mmHg 69%
    01:00 +22°C° 0 mm 1 mps 703 mmHg 68%
    02:00 +22°C° 0 mm 1 mps 702 mmHg 68%
    03:00 +22°C° 0 mm 1 mps 702 mmHg 68%
    04:00 +21°C° 0 mm 1 mps 702 mmHg 68%
    05:00 +22°C° 0 mm 1 mps 702 mmHg 64%
    06:00 +23°C° 0 mm 1 mps 703 mmHg 60%
    07:00 +24°C° 0 mm 1 mps 703 mmHg 55%
    08:00 +25°C° 0 mm 2 mps 703 mmHg 52%
    09:00 +26°C° 0 mm 3 mps 703 mmHg 49%
    10:00 +27°C° 0 mm 3 mps 703 mmHg 46%
    11:00 +28°C° 0 mm 4 mps 703 mmHg 46%
    12:00 +28°C° 0 mm 4 mps 702 mmHg 46%
    13:00 +28°C° 0 mm 4 mps 701 mmHg 46%
    14:00 +28°C° 0 mm 4 mps 701 mmHg 51%
    15:00 +27°C° 0 mm 4 mps 701 mmHg 55%
    16:00 +26°C° 0 mm 4 mps 700 mmHg 60%
    17:00 +25°C° 0 mm 3 mps 701 mmHg 64%
    18:00 +24°C° 0 mm 2 mps 701 mmHg 69%
    19:00 +23°C° 0 mm 2 mps 702 mmHg 73%
    20:00 +23°C° 0 mm 1 mps 702 mmHg 72%
    21:00 +23°C° 0 mm 1 mps 703 mmHg 72%
    22:00 +23°C° 0 mm 1 mps 703 mmHg 71%
    23:00 +23°C° 0 mm 1 mps 703 mmHg 71%

    24 November, Saturday

    Time Temperature Precipitation Wind Pressure Humidity
    00:00 +22°C° 0 mm 1 mps 702 mmHg 70%
    01:00 +22°C° 0 mm 1 mps 702 mmHg 70%
    02:00 +22°C° 0 mm 1 mps 702 mmHg 70%
    03:00 +19°C° 0 mm 0 mps 702 mmHg 70%
    04:00 +19°C° 0 mm 0 mps 702 mmHg 70%
    05:00 +22°C° 0 mm 1 mps 702 mmHg 64%
    06:00 +23°C° 0 mm 1 mps 702 mmHg 58%
    07:00 +24°C° 0 mm 1 mps 703 mmHg 52%
    08:00 +25°C° 0 mm 2 mps 703 mmHg 48%
    09:00 +27°C° 0 mm 3 mps 703 mmHg 43%
    10:00 +28°C° 0 mm 3 mps 702 mmHg 39%
    11:00 +28°C° 0 mm 4 mps 702 mmHg 40%
    12:00 +28°C° 0 mm 4 mps 701 mmHg 41%
    13:00 +29°C° 0 mm 5 mps 701 mmHg 42%
    14:00 +28°C° 0 mm 4 mps 701 mmHg 47%
    15:00 +27°C° 0 mm 4 mps 700 mmHg 53%
    16:00 +26°C° 0 mm 4 mps 700 mmHg 58%
    17:00 +25°C° 0 mm 3 mps 701 mmHg 64%
    18:00 +24°C° 0 mm 2 mps 702 mmHg 70%
    19:00 +23°C° 0 mm 2 mps 702 mmHg 76%
    20:00 +23°C° 0 mm 1 mps 703 mmHg 76%
    21:00 +23°C° 0 mm 1 mps 703 mmHg 76%
    22:00 +23°C° 0 mm 1 mps 703 mmHg 76%
    23:00 +23°C° 0 mm 1 mps 703 mmHg 76%

    25 November, Sunday

    Time Temperature Precipitation Wind Pressure Humidity
    00:00 +21°C° 0 mm 0 mps 702 mmHg 75%
    01:00 +21°C° 0 mm 0 mps 702 mmHg 75%
    02:00 +20°C° 0 mm 0 mps 702 mmHg 74%
    03:00 +20°C° 0 mm 0 mps 702 mmHg 73%
    04:00 +22°C° 0 mm 1 mps 702 mmHg 72%
    05:00 +23°C° 0 mm 1 mps 702 mmHg 68%
    06:00 +23°C° 0 mm 1 mps 702 mmHg 64%
    07:00 +24°C° 0 mm 1 mps 703 mmHg 60%
    08:00 +25°C° 0 mm 2 mps 703 mmHg 55%
    09:00 +26°C° 0 mm 2 mps 703 mmHg 50%
    10:00 +27°C° 0 mm 3 mps 703 mmHg 44%
    11:00 +27°C° 0 mm 3 mps 702 mmHg 45%
    12:00 +27°C° 0 mm 3 mps 702 mmHg 45%
    13:00 +28°C° 0 mm 4 mps 701 mmHg 46%
    14:00 +27°C° 0 mm 4 mps 701 mmHg 50%
    15:00 +26°C° 0 mm 3 mps 701 mmHg 54%
    16:00 +26°C° 0 mm 3 mps 701 mmHg 58%
    17:00 +25°C° 0 mm 3 mps 702 mmHg 63%
    18:00 +24°C° 0 mm 2 mps 702 mmHg 68%
    19:00 +24°C° 0 mm 2 mps 703 mmHg 73%
    20:00 +23°C° 0.1 mm 1 mps 703 mmHg 74%
    21:00 +23°C° 0.1 mm 1 mps 703 mmHg 75%
    22:00 +23°C° 0.1 mm 1 mps 704 mmHg 76%
    23:00 +23°C° 0.1 mm 1 mps 703 mmHg 77%

    26 November, Monday

    Time Temperature Precipitation Wind Pressure Humidity
    00:00 +23°C° 0.1 mm 1 mps 703 mmHg 78%
    01:00 +23°C° 0.1 mm 1 mps 702 mmHg 79%
    02:00 +23°C° 0.1 mm 1 mps 702 mmHg 78%
    03:00 +23°C° 0.1 mm 1 mps 702 mmHg 78%
    04:00 +22°C° 0.1 mm 1 mps 702 mmHg 77%
    05:00 +23°C° 0.1 mm 1 mps 703 mmHg 75%
    06:00 +23°C° 0.1 mm 1 mps 703 mmHg 72%
    07:00 +24°C° 0.1 mm 1 mps 703 mmHg 69%
    08:00 +25°C° 0 mm 1 mps 703 mmHg 63%
    09:00 +26°C° 0 mm 2 mps 703 mmHg 57%
    10:00 +27°C° 0 mm 3 mps 703 mmHg 51%
    11:00 +27°C° 0.1 mm 3 mps 703 mmHg 51%
    12:00 +27°C° 0.1 mm 3 mps 702 mmHg 51%
    13:00 +28°C° 0.1 mm 4 mps 702 mmHg 51%
    14:00 +27°C° 0 mm 4 mps 702 mmHg 53%
    15:00 +27°C° 0 mm 3 mps 702 mmHg 56%
    16:00 +26°C° 0 mm 3 mps 702 mmHg 59%
    17:00 +25°C° 0 mm 3 mps 702 mmHg 63%
    18:00 +24°C° 0 mm 2 mps 703 mmHg 68%
    19:00 +23°C° 0 mm 1 mps 703 mmHg 72%
    20:00 +23°C° 0 mm 1 mps 704 mmHg 73%
    21:00 +23°C° 0 mm 1 mps 704 mmHg 73%
    22:00 +23°C° 0 mm 1 mps 704 mmHg 74%
    23:00 +23°C° 0 mm 1 mps 703 mmHg 74%
    Show more